FENGYUN 1C DEB

Satellite information

Favourite Embed

Satellite Type and Status

DEBRISIN ORBIT

Key statistics

Satellite FENGYUN 1C DEB at a glance.

Uptime

9496

Days in orbit

Revolutions

≈ 14.6

Per day

Orbit

SSO

Sun Synchronous Orbit

Inclination

99.3

Latest

Satellite identification and parameters

Extended collection of information and parameters for FENGYUN 1C DEB.

Object identification

Identified? True

Debris? True

Object name: FENGYUN 1C DEB

International designator: 1999-025BUD

Object number (NORAD): 31441

Object ID (CCSDS): 31441

Country: PEOPLES REPUBLIC OF CHINA (PRC)

Current information (Y/N): Y

RCS size: SMALL

Orbital parameters

Period: 98.583 minutes

Inclination: 99.3386 deg

SMA: 7069.056 km

Apoapsis: 783.281 km

Periapsis: 598.562 km

RAAN: 317.4462 deg

Eccentricy: 0.0130653

Argument of periapsis: 291.4439 deg

Mean anomaly: 67.2865 deg

Mean motion: 14.60698532 rev/day

Mean motion (dot): 0.00023114 rev/day2

B* drag term: 0.0042032 1/REarth

Two-line elements (TLE)

Creation date: May 5, 2025, 2:11 a.m.

Reference frame: TEME

Reference center: EARTH

Epoch: May 4, 2025, 6:59 p.m. UTC

TLE line 0: 0 FENGYUN 1C DEB

TLE line 1: 1 31441U 99025BUD 25124.79121186 .00023114 00000-0 42032-2 0 9991

TLE line 2: 2 31441 99.3386 317.4462 0130653 291.4439 67.2865 14.60698532608372

Live tracking on map

Real-time ground track for satellite FENGYUN 1C DEB.

In-orbit conjunctions

A list of the most updated potential collisions computed for object FENGYUN 1C DEB.

Target Orbit TCA Probability of collision Miss distance Type
SL-14 R/B LEO 2024-11-20 09:17:28 0.00155246 87.0 (m) ROCKET BODY

Associated space launch

Chinese polar orbiting meteorological satellite

FENGYUN 1C DEB was lifted into orbit during the mission ‘Long March 4B | Feng Yun 1C’, on board a Long March 4B space rocket.

The launch took place on May 10, 1999, 1:33 a.m. from Launch Complex 7.

For more information about the launch, click the button.

Launch to space Long March 4B | Feng Yun 1C
Long March 4B | Feng Yun 1C

Agency: N/A

Status: Launch Successful

Launch date: May 10, 1999, 1:33 a.m. UTC

Rocket: Long March 4B

Launch pad: Launch Complex 7

Location: Taiyuan Satellite Launch Center, People's Republic of China

...

Latest news about this satellite

There are no fresh news available about this satellite. Check back as we update our databases every day.


Newsletter sign-up

Weekly statistics, charts and insights to help you stay on top of the space industry.